Precipitable_Water
1.03 0.96 0.90 0.85 0.85 0.85 0.83 0.80 0.75 0.65 0.65 0.69 0.70 0.79 0.83 0.83 0.81 0.80 0.76 0.72 0.70 0.70 0.69 0.67 0.65 0.63 0.59 0.56 0.54 0.53 0.54 0.54 0.55 0.53 0.52 0.52 0.51 0.50
1.06 0.99 0.93 0.88 0.88 0.88 0.87 0.84 0.80 0.73 0.65 0.70 0.69 0.68 0.74 0.75 0.74 0.71 0.68 0.68 0.69 0.68 0.64 0.62 0.61 0.58 0.55 0.54 0.53 0.52 0.52 0.51 0.51 0.50 0.49 0.48 0.46 0.45
1.05 1.00 0.96 0.93 0.93 0.92 0.89 0.86 0.81 0.76 0.69 0.71 0.70 0.68 0.68 0.67 0.70 0.70 0.68 0.67 0.68 0.64 0.63 0.63 0.58 0.55 0.53 0.51 0.50 0.51 0.50 0.49 0.47 0.46 0.44 0.44 0.43 0.41
1.06 1.02 0.98 0.97 0.97 0.99 0.94 0.87 0.83 0.81 0.75 0.68 0.69 0.68 0.67 0.67 0.67 0.66 0.67 0.67 0.64 0.65 0.65 0.61 0.57 0.54 0.52 0.51 0.50 0.49 0.48 0.46 0.44 0.42 0.41 0.41 0.40 0.38
1.10 1.06 1.08 1.05 1.03 1.04 0.99 0.89 0.84 0.79 0.75 0.71 0.71 0.72 0.70 0.69 0.66 0.64 0.65 0.67 0.68 0.67 0.62 0.58 0.55 0.55 0.53 0.51 0.50 0.47 0.44 0.43 0.41 0.42 0.41 0.39 0.37 0.34
1.13 1.13 1.12 1.12 1.09 1.05 0.98 0.91 0.82 0.75 0.72 0.71 0.71 0.72 0.72 0.71 0.67 0.62 0.61 0.66 0.64 0.64 0.57 0.55 0.53 0.52 0.51 0.49 0.45 0.42 0.42 0.41 0.39 0.38 0.37 0.35 0.32 0.31
1.06 1.07 1.08 1.08 1.03 0.98 0.95 0.91 0.87 0.80 0.73 0.69 0.68 0.69 0.70 0.69 0.66 0.65 0.60 0.62 0.61 0.58 0.53 0.52 0.52 0.52 0.50 0.47 0.44 0.41 0.38 0.37 0.38 0.36 0.33 0.31 0.29 0.28
1.03 1.00 0.99 0.99 0.98 0.98 0.96 0.92 0.89 0.81 0.74 0.71 0.69 0.67 0.68 0.68 0.67 0.64 0.61 0.58 0.53 0.58 0.54 0.53 0.53 0.50 0.47 0.44 0.42 0.39 0.37 0.38 0.35 0.32 0.29 0.28 0.27 0.25
0.96 0.94 0.92 0.94 0.95 0.94 0.93 0.92 0.90 0.86 0.81 0.74 0.73 0.71 0.74 0.76 0.72 0.66 0.62 0.56 0.53 0.55 0.55 0.51 0.51 0.45 0.44 0.42 0.41 0.37 0.38 0.35 0.32 0.29 0.28 0.28 0.26 0.25
0.94 0.95 0.93 0.92 0.92 0.90 0.89 0.87 0.86 0.85 0.82 0.79 0.79 0.78 0.77 0.76 0.71 0.66 0.61 0.59 0.59 0.59 0.56 0.46 0.46 0.42 0.42 0.41 0.39 0.34 0.36 0.33 0.31 0.30 0.28 0.25 0.24 0.23
0.91 0.91 0.90 0.87 0.86 0.86 0.82 0.79 0.78 0.77 0.82 0.82 0.79 0.79 0.77 0.73 0.68 0.62 0.59 0.57 0.53 0.52 0.51 0.44 0.42 0.39 0.39 0.37 0.35 0.34 0.34 0.33 0.30 0.28 0.26 0.24 0.23 0.22
0.88 0.88 0.87 0.82 0.84 0.83 0.78 0.75 0.73 0.74 0.76 0.74 0.73 0.72 0.71 0.69 0.67 0.63 0.59 0.53 0.50 0.46 0.47 0.43 0.44 0.41 0.33 0.33 0.30 0.29 0.29 0.29 0.27 0.25 0.23 0.22 0.21 0.19
0.81 0.80 0.82 0.81 0.79 0.78 0.76 0.74 0.73 0.73 0.71 0.69 0.69 0.68 0.67 0.65 0.63 0.61 0.58 0.53 0.48 0.46 0.50 0.47 0.40 0.35 0.29 0.27 0.30 0.29 0.26 0.23 0.22 0.20 0.19 0.18 0.18 0.18
0.79 0.79 0.78 0.76 0.75 0.74 0.73 0.71 0.70 0.69 0.67 0.64 0.62 0.60 0.59 0.58 0.57 0.56 0.54 0.51 0.51 0.48 0.45 0.41 0.34 0.32 0.31 0.27 0.21 0.22 0.21 0.19 0.18 0.17 0.16 0.16 0.16 0.17
0.77 0.76 0.75 0.73 0.71 0.69 0.68 0.68 0.67 0.64 0.61 0.58 0.56 0.56 0.56 0.55 0.52 0.50 0.50 0.48 0.44 0.42 0.39 0.37 0.34 0.31 0.26 0.22 0.19 0.17 0.17 0.16 0.16 0.16 0.16 0.15 0.15 0.16
0.71 0.70 0.70 0.68 0.67 0.64 0.64 0.63 0.62 0.60 0.57 0.55 0.54 0.54 0.53 0.50 0.48 0.47 0.43 0.39 0.35 0.34 0.35 0.32 0.29 0.26 0.22 0.20 0.18 0.15 0.15 0.14 0.14 0.14 0.15 0.16 0.17 0.17
0.65 0.63 0.61 0.60 0.58 0.58 0.58 0.58 0.57 0.55 0.53 0.52 0.50 0.49 0.47 0.46 0.42 0.39 0.37 0.35 0.31 0.29 0.28 0.28 0.27 0.24 0.21 0.17 0.14 0.15 0.14 0.14 0.14 0.14 0.15 0.15 0.17 0.17
0.59 0.56 0.54 0.54 0.53 0.53 0.52 0.52 0.52 0.51 0.50 0.48 0.46 0.43 0.40 0.38 0.36 0.36 0.34 0.31 0.29 0.28 0.27 0.26 0.23 0.20 0.18 0.18 0.19 0.15 0.15 0.15 0.15 0.16 0.16 0.15 0.14 0.14
0.54 0.52 0.52 0.51 0.50 0.50 0.50 0.49 0.47 0.47 0.46 0.43 0.40 0.39 0.39 0.38 0.35 0.32 0.31 0.29 0.27 0.26 0.25 0.24 0.20 0.17 0.14 0.13 0.16 0.19 0.16 0.16 0.16 0.15 0.15 0.14 0.13 0.13
0.51 0.49 0.49 0.49 0.49 0.47 0.47 0.46 0.46 0.45 0.43 0.42 0.41 0.39 0.37 0.34 0.32 0.30 0.29 0.27 0.26 0.26 0.24 0.22 0.19 0.17 0.15 0.14 0.14 0.17 0.18 0.17 0.16 0.15 0.14 0.15 0.16 0.18
0.47 0.47 0.48 0.47 0.47 0.47 0.47 0.46 0.45 0.43 0.41 0.39 0.37 0.35 0.33 0.32 0.30 0.30 0.29 0.28 0.27 0.25 0.23 0.20 0.18 0.21 0.20 0.20 0.16 0.15 0.17 0.20 0.19 0.17 0.16 0.15 0.15 0.17
0.46 0.45 0.46 0.46 0.45 0.45 0.44 0.42 0.39 0.38 0.36 0.34 0.33 0.33 0.33 0.32 0.30 0.29 0.28 0.27 0.26 0.24 0.22 0.21 0.21 0.20 0.19 0.17 0.15 0.15 0.16 0.18 0.18 0.18 0.19 0.19 0.18 0.16
0.45 0.45 0.43 0.42 0.40 0.39 0.37 0.36 0.35 0.35 0.34 0.34 0.33 0.32 0.31 0.29 0.29 0.28 0.28 0.27 0.25 0.22 0.21 0.20 0.19 0.19 0.18 0.17 0.16 0.16 0.16 0.16 0.16 0.17 0.18 0.20 0.21 0.21
Wind_Speed
30 29 27 26 25 24 24 23 22 22 23 23 23 25 24 24 23 23 22 22 22 22 22 22 22 23 23 23 23 24 24 25 25 26 26 27 27 28
32 31 30 29 27 27 27 26 25 24 23 25 26 26 25 25 24 24 23 23 23 23 23 23 23 24 25 25 25 26 26 26 26 27 28 28 29 30
35 34 33 32 30 29 29 28 28 27 26 25 26 26 26 26 25 25 25 25 25 25 24 25 25 26 26 27 27 28 28 28 28 29 30 30 31 33
39 38 36 34 33 32 32 31 30 30 29 27 27 27 27 28 28 28 27 27 27 26 26 27 27 27 28 28 29 29 29 30 30 31 32 32 33 34
41 40 39 38 36 34 34 33 32 32 31 29 28 29 29 30 30 30 29 28 29 28 28 29 29 29 30 30 30 30 31 31 32 33 33 34 35 36
36 37 38 39 36 37 34 34 34 32 31 31 30 31 31 31 31 31 31 30 31 31 31 31 31 31 32 31 32 32 32 33 34 34 35 35 35 36
37 35 36 35 36 34 35 35 35 34 34 33 33 34 33 32 33 33 33 33 33 33 33 33 33 33 33 33 34 34 35 35 35 35 35 36 36 36
37 36 36 37 37 36 37 36 36 35 34 35 35 36 35 35 35 35 34 35 35 35 35 35 35 35 35 35 35 36 36 36 36 36 36 37 37 38
40 39 37 37 37 37 35 34 35 35 36 35 34 35 37 38 37 37 36 36 35 35 35 35 35 35 35 36 37 38 37 36 37 37 37 37 39 40
39 39 38 37 36 37 36 35 35 35 34 35 35 35 35 37 37 37 36 36 35 35 35 35 36 36 37 37 38 38 37 37 37 37 38 39 40 40
39 39 39 38 37 36 36 35 36 36 36 37 36 36 36 35 35 35 35 35 35 35 36 36 36 38 38 38 37 36 36 37 37 38 39 39 40 40
39 40 40 39 38 38 38 37 37 37 37 36 36 35 35 35 35 36 36 36 36 36 36 36 36 36 35 35 35 36 36 37 38 39 39 39 40 40
40 40 39 39 39 39 39 38 37 37 36 36 36 35 35 35 34 34 35 35 35 35 35 34 34 34 35 35 36 37 38 38 38 39 40 40 40 40
41 40 40 39 38 37 37 36 36 35 35 34 34 34 33 33 33 33 34 33 34 34 34 34 34 35 35 36 36 36 37 39 39 39 40 41 40 41
41 40 39 38 37 36 36 35 34 34 33 33 33 33 33 32 32 31 31 31 32 32 33 34 34 35 36 36 37 37 38 37 40 39 39 40 41 42
39 38 38 37 36 34 33 33 33 33 33 32 32 31 30 30 31 31 31 32 33 34 35 35 36 36 37 37 38 38 39 38 38 40 41 41 42 43
36 36 36 35 34 34 33 33 32 32 31 31 31 30 30 30 31 31 32 32 33 33 34 35 36 36 37 37 37 39 39 39 40 41 41 42 43 44
35 34 34 34 34 33 33 32 32 32 31 31 31 31 30 31 31 31 32 33 33 35 35 36 36 36 37 38 39 39 39 40 41 41 42 44 45 46
34 34 33 33 33 33 33 32 31 31 31 30 30 31 31 32 31 32 33 34 35 36 36 36 36 36 37 38 39 40 40 41 42 43 44 46 47 47
34 34 33 32 32 32 31 31 31 31 31 31 31 32 32 32 33 34 35 36 37 37 37 37 37 38 39 39 40 40 40 42 43 45 46 47 48 49
32 32 32 32 31 31 31 31 31 31 31 32 32 33 33 34 35 36 37 38 38 38 38 38 38 40 42 43 43 43 44 45 46 47 47 48 48 49
30 30 30 31 31 31 31 31 31 32 32 33 33 34 35 36 37 37 38 38 39 39 39 40 41 41 42 43 45 45 46 46 46 46 47 48 48 48
30 30 30 30 30 31 31 32 32 33 33 34 34 35 36 37 38 38 39 40 40 40 41 42 42 43 44 45 46 46 47 46 46 46 46 47 48 49
Wind_Direction
237 239 242 244 247 249 250 249 253 258 259 257 259 257 259 262 266 267 270 272 275 278 282 285 288 292 295 298 301 304 306 308 309 311 312 313 314 315
239 240 242 245 248 250 251 253 256 259 260 261 261 258 257 259 264 265 269 271 274 277 280 283 286 290 293 295 298 300 302 304 306 308 309 309 311 312
240 240 242 245 248 250 252 254 257 258 261 264 260 256 257 258 262 265 268 270 273 276 278 281 285 288 291 293 295 298 299 301 303 304 306 307 308 310
241 241 243 244 247 251 253 253 256 258 262 261 256 256 258 260 263 264 267 269 272 274 276 280 283 286 289 291 294 295 296 298 300 302 303 304 306 307
241 241 245 244 247 251 251 253 259 259 258 257 258 256 260 262 264 264 267 267 270 272 276 279 281 284 288 290 291 292 294 296 298 300 301 303 304 306
240 241 243 242 247 250 250 253 255 255 257 255 258 258 262 263 262 263 265 267 269 272 275 277 280 283 286 288 289 290 293 295 297 299 300 301 303 304
243 243 243 243 247 247 251 253 255 255 255 255 257 258 261 260 261 263 264 267 270 271 273 276 279 281 284 286 288 290 292 293 295 297 298 300 302 303
242 243 245 246 246 250 252 253 253 253 254 257 257 258 259 261 262 263 265 267 270 270 272 276 278 281 283 285 287 289 291 292 293 296 297 299 301 302
245 245 246 248 249 250 252 252 253 254 254 255 257 259 260 260 260 261 264 265 270 271 272 276 277 281 282 284 286 289 289 289 292 294 296 298 299 301
244 245 247 249 249 249 251 254 255 255 254 257 259 261 262 260 259 261 263 265 267 270 271 274 276 279 280 283 285 287 286 288 290 293 295 297 299 300
244 244 247 249 250 250 253 254 255 256 257 259 260 262 262 260 258 261 263 263 268 269 271 274 276 279 281 282 284 286 286 287 290 292 295 297 298 300
244 246 247 249 249 250 254 254 254 256 258 259 259 260 262 261 261 261 262 263 268 271 273 275 277 280 282 283 284 285 286 288 290 292 294 296 298 299
244 246 248 247 250 253 254 255 255 255 256 258 258 259 261 261 261 261 263 265 267 273 274 275 277 279 281 284 285 285 287 289 290 292 294 296 297 298
244 246 248 248 249 251 253 254 253 254 255 257 257 259 260 260 261 262 265 268 270 272 272 274 278 280 282 284 286 287 288 289 291 293 295 296 297 298
244 244 243 245 249 251 251 250 251 253 254 255 257 258 259 260 261 263 266 267 270 273 274 276 278 280 282 283 286 287 289 290 292 293 295 297 298 300
240 241 243 243 246 248 248 248 250 252 253 254 255 256 257 258 261 263 266 268 271 274 276 278 279 281 283 284 285 286 289 290 292 294 296 297 299 300
234 237 238 241 244 245 246 248 249 251 252 252 254 255 257 259 261 264 268 269 272 275 277 279 280 281 282 284 285 287 289 290 292 294 296 298 299 300
232 234 238 240 242 243 244 245 247 249 251 252 253 255 257 258 261 264 268 271 273 276 277 279 281 282 283 285 285 288 289 290 293 295 296 298 300 301
233 235 237 238 240 241 243 245 246 248 249 251 253 256 260 261 263 264 268 271 273 276 277 279 280 280 283 285 287 287 289 291 293 295 297 298 300 301
233 234 237 239 238 240 241 244 245 248 250 253 256 258 260 262 264 266 269 272 275 277 279 279 278 279 281 285 287 288 290 292 293 295 297 298 299 300
233 235 236 237 238 241 243 245 248 250 253 255 258 260 262 264 266 269 272 274 276 277 277 277 278 281 283 286 287 288 290 291 293 295 297 298 299 301
233 235 236 238 240 243 246 248 251 252 255 258 260 262 264 266 268 271 273 275 276 277 278 279 281 282 283 284 286 288 290 292 293 295 295 296 299 301
234 236 238 240 243 245 247 250 252 255 257 260 262 264 266 268 271 272 274 275 276 278 279 280 281 282 283 284 286 289 290 292 294 294 295 297 298 299